DW2849 Weather Reports


Display with metric or nautical units.
time (UTC)temp
F
wind
direction
speed
MPH
gust
MPH
rain 1hr
in
rain 24hr
in
rain mn
in
humidity
%
barometer
mb
20260905083238 57 315 0.0 0.0 0.00 0.00 0.00 76 1014.1
20260905081946 57 315 0.0 1.0 0.00 0.00 0.00 77 1014.0
20260905080846 57 315 0.0 1.0 0.00 0.00 0.00 76 1014.1
20260905075746 57 315 0.0 0.0 0.00 0.00 0.00 78 1014.1
20260905074647 57 315 0.0 2.0 0.00 0.00 0.00 77 1014.1
20260905073546 57 315 2.0 2.0 0.00 0.00 0.00 77 1014.1
20260905072255 57 292 0.0 0.0 0.00 0.00 0.00 77 1014.1
20260905071156 57 292 0.0 0.0 0.00 0.00 0.00 78 1014.1
20260905070055 56 292 1.0 1.0 0.00 0.00 0.00 79 1014.0
20260905064955 57 292 0.0 0.0 0.00 0.00 0.00 78 1014.0
20260905063855 56 292 0.0 2.0 0.00 0.00 0.00 80 1013.9
20260905062604 55 292 1.0 2.0 0.00 0.00 0.00 83 1013.9
20260905061507 56 292 0.0 2.0 0.00 0.00 0.00 81 1013.9
20260905060213 55 292 1.0 2.0 0.00 0.00 0.00 82 1013.9
20260905055113 55 292 1.0 2.0 0.00 0.00 0.00 83 1014.0
20260905054013 55 323 0.0 2.0 0.00 0.00 0.00 84 1014.1
20260905052912 55 0 1.0 2.0 0.00 0.00 0.00 84 1014.1
20260905051813 55 32 1.0 3.0 0.00 0.00 0.00 84 1014.2
20260905050713 55 287 2.0 3.0 0.00 0.00 0.00 84 1014.2
20260905045613 55 315 2.0 2.0 0.00 0.00 0.00 84 1014.3
20260905044321 55 278 2.0 3.0 0.00 0.00 0.00 85 1014.2
20260905043221 55 264 2.0 4.0 0.00 0.00 0.00 85 1014.1
20260905042122 55 250 2.0 6.0 0.00 0.00 0.00 85 1014.0
20260905041021 55 254 3.0 4.0 0.00 0.00 0.00 85 1013.9
20260905035921 55 228 3.0 5.0 0.00 0.00 0.00 85 1013.9
20260905034821 56 228 2.0 4.0 0.00 0.00 0.00 84 1013.8
20260905033721 56 219 2.0 4.0 0.00 0.00 0.00 84 1013.7
20260905032621 56 231 2.0 5.0 0.00 0.00 0.00 84 1013.6
20260905031330 56 225 2.0 7.0 0.00 0.00 0.00 83 1013.6
20260905030230 56 222 4.0 7.0 0.00 0.00 0.00 83 1013.6
20260905025130 56 228 3.0 5.0 0.00 0.00 0.00 82 1013.5
20260905023839 57 250 3.0 6.0 0.00 0.00 0.00 81 1013.6
20260905022738 57 266 3.0 4.0 0.00 0.00 0.00 80 1013.6
20260905021639 58 225 3.0 6.0 0.00 0.00 0.00 80 1013.5
20260905020538 58 235 3.0 9.0 0.00 0.00 0.00 79 1013.5
20260905015247 59 205 3.0 6.0 0.00 0.00 0.00 78 1013.5
20260905014148 59 265 4.0 9.0 0.00 0.00 0.00 78 1013.6
20260905013047 59 259 5.0 10.0 0.00 0.00 0.00 77 1013.7
20260905011947 59 236 3.0 11.0 0.00 0.00 0.00 77 1013.6
20260905010847 60 295 4.0 13.0 0.00 0.00 0.00 76 1013.6
20260905005747 60 260 3.0 6.0 0.00 0.00 0.00 77 1013.6
20260905004647 61 270 3.0 5.0 0.00 0.00 0.00 77 1013.6
20260905003548 61 270 3.0 10.0 0.00 0.00 0.00 77 1013.6
20260905002256 61 245 5.0 11.0 0.00 0.00 0.00 77 1013.6
20260905001156 62 267 5.0 11.0 0.00 0.00 0.00 76 1013.6
20260905000056 62 264 3.0 7.0 0.00 0.00 0.00 76 1013.6
20260904234956 63 238 4.0 9.0 0.00 0.00 0.00 76 1013.8
20260904233856 63 225 4.0 10.0 0.00 0.00 0.00 74 1013.8
20260904232604 64 245 5.0 9.0 0.00 0.00 0.00 73 1013.8
20260904231504 65 254 3.0 8.0 0.00 0.00 0.00 72 1013.7
20260904230404 65 266 5.0 9.0 0.00 0.01 0.00 71 1013.7
20260904225306 66 205 4.0 8.0 0.00 0.01 0.00 71 1013.7
20260904224013 66 252 3.0 6.0 0.00 0.01 0.00 71 1013.8
20260904222913 66 302 3.0 8.0 0.00 0.01 0.00 69 1014.0
20260904221813 67 312 4.0 8.0 0.00 0.01 0.00 70 1014.0
20260904220522 67 214 4.0 7.0 0.00 0.01 0.00 69 1013.9
20260904215422 67 242 5.0 13.0 0.00 0.01 0.00 69 1014.1
20260904214322 67 245 3.0 7.0 0.00 0.01 0.00 71 1014.0
20260904213222 67 255 5.0 10.0 0.00 0.01 0.00 71 1014.1
20260904212122 66 188 4.0 6.0 0.00 0.01 0.00 72 1014.1
20260904211022 67 231 3.0 11.0 0.00 0.01 0.00 70 1014.1
20260904205922 67 217 3.0 5.0 0.00 0.01 0.00 70 1014.1
20260904204631 66 228 4.0 5.0 0.00 0.01 0.00 70 1014.0
20260904203339 66 172 3.0 6.0 0.00 0.01 0.00 69 1014.0
20260904202239 66 206 2.0 6.0 0.00 0.01 0.00 70 1013.9
20260904201139 67 284 3.0 6.0 0.00 0.01 0.00 70 1013.9
20260904200039 66 218 3.0 7.0 0.00 0.01 0.00 70 1013.9
20260904194939 66 197 3.0 6.0 0.00 0.01 0.00 71 1013.9
20260904193648 65 188 3.0 8.0 0.00 0.01 0.00 70 1013.9
20260904192548 65 193 2.0 7.0 0.00 0.01 0.00 70 1013.9
20260904191448 66 222 3.0 8.0 0.00 0.01 0.00 71 1013.9
20260904190348 66 214 3.0 5.0 0.00 0.01 0.00 71 1014.0
20260904185249 67 32 1.0 3.0 0.00 0.01 0.00 67 1014.0
20260904184148 66 112 1.0 3.0 0.00 0.01 0.00 67 1014.1
20260904183048 65 315 0.0 4.0 0.00 0.01 0.00 69 1014.0
20260904181948 65 295 2.0 3.0 0.00 0.01 0.00 70 1014.0
20260904180848 65 315 2.0 4.0 0.00 0.01 0.00 69 1014.0
20260904175557 62 253 3.0 4.0 0.00 0.01 0.00 77 1014.0
20260904174457 61 94 2.0 4.0 0.00 0.01 0.00 77 1013.9
20260904173357 61 42 2.0 3.0 0.00 0.02 0.00 74 1013.9
20260904172257 60 45 0.0 3.0 0.00 0.04 0.00 76 1013.8
20260904171157 60 71 0.0 4.0 0.00 0.05 0.00 75 1013.7
20260904170057 59 199 2.0 4.0 0.00 0.06 0.00 75 1013.7
20260904164805 59 265 3.0 4.0 0.00 0.07 0.00 74 1013.7
20260904163514 58 214 1.0 3.0 0.00 0.10 0.00 77 1013.7
20260904162414 58 214 2.0 4.0 0.00 0.15 0.00 77 1013.6
20260904161314 57 315 0.0 2.0 0.00 0.16 0.00 79 1013.6
20260904160214 56 278 0.0 4.0 0.00 0.16 0.00 80 1013.6
20260904155114 56 292 0.0 2.0 0.00 0.17 0.00 79 1013.6
20260904153823 55 292 0.0 2.0 0.00 0.19 0.00 79 1013.5
20260904152723 55 267 0.0 3.0 0.00 0.20 0.00 81 1013.5
20260904151623 55 270 1.0 2.0 0.00 0.21 0.00 80 1013.4
20260904150524 55 273 1.0 2.0 0.00 0.22 0.00 79 1013.3
20260904145232 54 270 0.0 2.0 0.00 0.24 0.00 80 1013.1
20260904144132 54 0 0.0 0.0 0.00 0.26 0.00 80 1013.0
20260904143032 54 0 0.0 0.0 0.00 0.28 0.00 81 1012.9
20260904141932 53 0 0.0 0.0 0.00 0.30 0.00 80 1012.8
20260904140832 52 0 0.0 1.0 0.00 0.31 0.00 82 1012.7
20260904135732 52 180 0.0 0.0 0.00 0.32 0.32 84 1012.6
20260904134632 52 65 0.0 0.0 0.00 0.34 0.32 84 1012.5
20260904133532 53 0 0.0 0.0 0.00 0.00 0.00 84 1012.3
20260904132240 53 334 0.0 0.0 0.00 0.40 0.32 83 1012.2
20260904131141 53 315 0.0 0.0 0.00 0.43 0.32 84 1012.1
20260904130041 53 315 0.0 0.0 0.00 0.45 0.32 83 1012.0
20260904124941 53 315 0.0 0.0 0.00 0.46 0.32 84 1011.9
20260904123841 52 270 0.0 0.0 0.00 0.49 0.32 85 1011.9
20260904122741 52 225 0.0 0.0 0.00 0.51 0.32 87 1011.8
20260904121450 52 202 0.0 0.0 0.00 0.52 0.32 87 1011.8
20260904120350 52 225 0.0 0.0 0.00 0.53 0.32 87 1011.9
20260904115249 52 270 0.0 0.0 0.00 0.53 0.32 87 1011.8
20260904114149 52 270 0.0 2.0 0.00 0.53 0.32 87 1011.8
20260904112859 53 315 1.0 2.0 0.00 0.53 0.32 87 1011.8
20260904111801 53 315 1.0 3.0 0.00 0.53 0.32 87 1011.8
20260904110658 53 315 2.0 2.0 0.00 0.53 0.32 87 1011.7
20260904105558 53 321 1.0 2.0 0.00 0.53 0.32 87 1011.7
20260904104458 53 301 2.0 3.0 0.00 0.53 0.32 87 1011.6
20260904103207 53 315 1.0 2.0 0.00 0.53 0.32 87 1011.6
20260904102108 53 248 1.0 2.0 0.00 0.53 0.32 87 1011.7
20260904101007 53 270 1.0 2.0 0.00 0.53 0.32 87 1011.7
20260904095907 53 230 1.0 3.0 0.00 0.53 0.32 87 1011.7
20260904094807 53 214 2.0 4.0 0.00 0.53 0.32 87 1011.7
20260904093707 53 273 1.0 4.0 0.00 0.53 0.32 87 1011.5
20260904092416 53 292 0.0 3.0 0.00 0.53 0.32 87 1011.5
20260904091316 53 270 0.0 0.0 0.00 0.53 0.32 87 1011.6
20260904090216 53 354 1.0 2.0 0.00 0.53 0.32 87 1011.7
20260904085116 53 270 0.0 1.0 0.00 0.53 0.32 87 1011.7
20260904084016 54 202 0.0 2.0 0.00 0.53 0.32 86 1011.7